Time,TemperatureF,DewpointF,PressureIn,WindDirection,WindDirectionDegrees,WindSpeedMPH,WindSpeedGustMPH,Humidity,HourlyPrecipIn,Conditions,Clouds,dailyrainin,SoftwareType,DateUTC
2013-06-22 00:00:00,57.1,44.2,29.95,NW,308,11.0,13.0,62,0.00,CLR,CLR,0.00,WeatherDisplay:10.34,2013-06-22 06:00:00,
2013-06-22 00:05:00,57.0,44.9,29.95,West,264,15.0,23.0,64,0.00,CLR,CLR,0.00,WeatherDisplay:10.34,2013-06-22 06:05:00,
2013-06-22 00:10:00,56.9,45.7,29.95,WNW,300,11.0,16.0,66,0.00,CLR,CLR,0.00,WeatherDisplay:10.34,2013-06-22 06:10:00,
2013-06-22 00:15:00,56.6,46.2,29.94,NNW,336,12.0,13.0,68,0.00,CLR,CLR,0.00,WeatherDisplay:10.34,2013-06-22 06:15:00,
2013-06-22 00:20:00,56.4,46.7,29.95,NW,311,7.0,7.0,70,0.00,CLR,CLR,0.00,WeatherDisplay:10.34,2013-06-22 06:20:00,
2013-06-22 00:25:00,56.2,46.5,29.95,WSW,251,11.0,14.0,70,0.00,CLR,CLR,0.00,WeatherDisplay:10.34,2013-06-22 06:25:00,
2013-06-22 00:30:00,56.0,46.7,29.94,West,277,5.0,7.0,71,0.00,CLR,CLR,0.00,WeatherDisplay:10.34,2013-06-22 06:30:00,
2013-06-22 00:35:00,55.8,47.3,29.94,West,276,13.0,14.0,73,0.00,CLR,CLR,0.00,WeatherDisplay:10.34,2013-06-22 06:35:00,
2013-06-22 00:40:00,55.4,47.2,29.94,WNW,302,14.0,15.0,74,0.00,CLR,CLR,0.00,WeatherDisplay:10.34,2013-06-22 06:40:00,
2013-06-22 00:45:00,55.0,47.2,29.95,WNW,289,12.0,15.0,75,0.00,CLR,CLR,0.00,WeatherDisplay:10.34,2013-06-22 06:45:00,
2013-06-22 00:50:00,54.8,47.0,29.94,WNW,302,6.0,9.0,75,0.00,CLR,CLR,0.00,WeatherDisplay:10.34,2013-06-22 06:50:00,
2013-06-22 00:55:00,54.5,47.1,29.94,WNW,288,13.0,13.0,76,0.00,CLR,CLR,0.00,WeatherDisplay:10.34,2013-06-22 06:55:00,
2013-06-22 01:00:00,54.4,47.0,29.94,West,268,12.0,12.0,76,0.00,CLR,CLR,0.00,WeatherDisplay:10.34,2013-06-22 07:00:00,
2013-06-22 01:05:00,54.2,47.1,29.94,WNW,283,14.0,15.0,77,0.00,CLR,CLR,0.00,WeatherDisplay:10.34,2013-06-22 07:05:00,
2013-06-22 01:10:00,54.1,47.0,29.93,WNW,300,16.0,17.0,77,0.00,CLR,CLR,0.00,WeatherDisplay:10.34,2013-06-22 07:10:00,
2013-06-22 01:15:00,53.9,46.9,29.93,West,279,20.0,23.0,77,0.00,CLR,CLR,0.00,WeatherDisplay:10.34,2013-06-22 07:15:00,
2013-06-22 01:20:00,53.6,46.9,29.93,WSW,257,10.0,17.0,78,0.00,CLR,CLR,0.00,WeatherDisplay:10.34,2013-06-22 07:20:00,
2013-06-22 01:25:00,53.5,46.8,29.93,WNW,301,16.0,22.0,78,0.00,CLR,CLR,0.00,WeatherDisplay:10.34,2013-06-22 07:25:00,
2013-06-22 01:30:00,53.2,46.9,29.93,NNW,342,13.0,15.0,79,0.00,CLR,CLR,0.00,WeatherDisplay:10.34,2013-06-22 07:30:00,
2013-06-22 01:35:00,53.0,46.7,29.93,WNW,286,11.0,17.0,79,0.00,CLR,CLR,0.00,WeatherDisplay:10.34,2013-06-22 07:35:00,
2013-06-22 01:40:00,52.8,46.5,29.93,NW,312,11.0,14.0,79,0.00,CLR,CLR,0.00,WeatherDisplay:10.34,2013-06-22 07:40:00,
2013-06-22 01:45:00,52.7,46.7,29.93,WNW,303,7.0,14.0,80,0.00,CLR,CLR,0.00,WeatherDisplay:10.34,2013-06-22 07:45:00,
2013-06-22 01:50:00,52.6,46.6,29.94,WSW,252,10.0,15.0,80,0.00,CLR,CLR,0.00,WeatherDisplay:10.34,2013-06-22 07:50:00,
2013-06-22 01:55:00,52.5,46.5,29.94,NW,313,8.0,9.0,80,0.00,CLR,CLR,0.00,WeatherDisplay:10.34,2013-06-22 07:55:00,
2013-06-22 02:00:00,52.4,46.4,29.94,WNW,302,6.0,8.0,80,0.00,CLR,CLR,0.00,WeatherDisplay:10.34,2013-06-22 08:00:00,
2013-06-22 02:05:00,52.4,46.4,29.94,WNW,294,6.0,9.0,80,0.00,CLR,CLR,0.00,WeatherDisplay:10.34,2013-06-22 08:05:00,
2013-06-22 02:10:00,52.3,46.3,29.94,West,269,15.0,15.0,80,0.00,CLR,CLR,0.00,WeatherDisplay:10.34,2013-06-22 08:10:00,
2013-06-22 02:15:00,52.2,46.5,29.94,NNW,329,10.0,10.0,81,0.00,CLR,CLR,0.00,WeatherDisplay:10.34,2013-06-22 08:15:00,
2013-06-22 02:20:00,52.1,46.4,29.94,NW,314,12.0,17.0,81,0.00,CLR,CLR,0.00,WeatherDisplay:10.34,2013-06-22 08:20:00,
2013-06-22 02:25:00,52.0,46.3,29.93,WNW,289,12.0,20.0,81,0.00,CLR,CLR,0.00,WeatherDisplay:10.34,2013-06-22 08:25:00,
2013-06-22 02:31:00,51.9,46.3,29.93,WNW,290,8.0,13.0,81,0.00,CLR,CLR,0.00,WeatherDisplay:10.34,2013-06-22 08:31:00,
2013-06-22 02:36:00,51.8,46.2,29.94,NNW,335,2.0,7.0,81,0.00,CLR,CLR,0.00,WeatherDisplay:10.34,2013-06-22 08:36:00,
2013-06-22 02:41:00,51.8,46.2,29.94,ENE,62,1.0,3.0,81,0.00,CLR,CLR,0.00,WeatherDisplay:10.34,2013-06-22 08:41:00,
2013-06-22 02:46:00,51.7,46.1,29.94,South,176,1.0,2.0,81,0.00,CLR,CLR,0.00,WeatherDisplay:10.34,2013-06-22 08:46:00,
2013-06-22 02:51:00,51.7,46.1,29.94,NE,40,2.0,3.0,81,0.00,CLR,CLR,0.00,WeatherDisplay:10.34,2013-06-22 08:51:00,
2013-06-22 02:56:00,51.6,46.0,29.94,NNE,32,3.0,3.0,81,0.00,CLR,CLR,0.00,WeatherDisplay:10.34,2013-06-22 08:56:00,
2013-06-22 03:01:00,51.5,46.2,29.94,NNW,333,7.0,8.0,82,0.00,CLR,CLR,0.00,WeatherDisplay:10.34,2013-06-22 09:01:00,
2013-06-22 03:06:00,51.2,46.2,29.94,NW,306,6.0,9.0,83,0.00,CLR,CLR,0.00,WeatherDisplay:10.34,2013-06-22 09:06:00,
2013-06-22 03:11:00,50.8,46.1,29.94,NW,326,1.0,2.0,84,0.00,CLR,CLR,0.00,WeatherDisplay:10.34,2013-06-22 09:11:00,
2013-06-22 03:16:00,50.7,46.0,29.95,East,99,2.0,5.0,84,0.00,CLR,CLR,0.00,WeatherDisplay:10.34,2013-06-22 09:16:00,
2013-06-22 03:21:00,50.7,45.7,29.95,East,90,3.0,3.0,83,0.00,CLR,CLR,0.00,WeatherDisplay:10.34,2013-06-22 09:21:00,
2013-06-22 03:26:00,50.8,45.8,29.95,West,275,4.0,5.0,83,0.00,CLR,CLR,0.00,WeatherDisplay:10.34,2013-06-22 09:26:00,
2013-06-22 03:31:00,50.6,45.6,29.94,NW,323,4.0,5.0,83,0.00,CLR,CLR,0.00,WeatherDisplay:10.34,2013-06-22 09:31:00,
2013-06-22 03:36:00,50.5,45.5,29.94,WNW,287,3.0,3.0,83,0.00,CLR,CLR,0.00,WeatherDisplay:10.34,2013-06-22 09:36:00,
2013-06-22 03:41:00,50.5,45.5,29.95,WNW,288,1.0,3.0,83,0.00,CLR,CLR,0.00,WeatherDisplay:10.34,2013-06-22 09:41:00,
2013-06-22 03:46:00,50.4,45.4,29.95,WNW,297,4.0,5.0,83,0.00,CLR,CLR,0.00,WeatherDisplay:10.34,2013-06-22 09:46:00,
2013-06-22 03:51:00,50.2,45.2,29.95,NW,310,2.0,5.0,83,0.00,CLR,CLR,0.00,WeatherDisplay:10.34,2013-06-22 09:51:00,
2013-06-22 03:56:00,50.1,45.1,29.94,NW,306,1.0,1.0,83,0.00,CLR,CLR,0.00,WeatherDisplay:10.34,2013-06-22 09:56:00,
2013-06-22 04:01:00,49.9,44.9,29.94,NW,307,3.0,5.0,83,0.00,CLR,CLR,0.00,WeatherDisplay:10.34,2013-06-22 10:01:00,
2013-06-22 04:06:00,49.9,44.9,29.94,West,281,1.0,5.0,83,0.00,CLR,CLR,0.00,WeatherDisplay:10.34,2013-06-22 10:06:00,
2013-06-22 04:11:00,49.9,44.9,29.94,WSW,257,3.0,3.0,83,0.00,CLR,CLR,0.00,WeatherDisplay:10.34,2013-06-22 10:11:00,
2013-06-22 04:16:00,49.8,44.8,29.94,WSW,257,1.0,3.0,83,0.00,CLR,CLR,0.00,WeatherDisplay:10.34,2013-06-22 10:16:00,
2013-06-22 04:21:00,49.8,44.8,29.94,WSW,257,1.0,1.0,83,0.00,CLR,CLR,0.00,WeatherDisplay:10.34,2013-06-22 10:21:00,
2013-06-22 04:26:00,49.7,44.7,29.94,WSW,248,5.0,5.0,83,0.00,CLR,CLR,0.00,WeatherDisplay:10.34,2013-06-22 10:26:00,
2013-06-22 04:31:00,49.7,44.7,29.94,WSW,245,5.0,7.0,83,0.00,CLR,CLR,0.00,WeatherDisplay:10.34,2013-06-22 10:31:00,
2013-06-22 04:36:00,49.6,44.6,29.94,WSW,243,2.0,3.0,83,0.00,CLR,CLR,0.00,WeatherDisplay:10.34,2013-06-22 10:36:00,
2013-06-22 04:41:00,49.4,44.5,29.95,SW,226,3.0,3.0,83,0.00,CLR,CLR,0.00,WeatherDisplay:10.34,2013-06-22 10:41:00,
2013-06-22 04:46:00,49.2,44.3,29.95,WSW,240,6.0,7.0,83,0.00,CLR,CLR,0.00,WeatherDisplay:10.34,2013-06-22 10:46:00,
2013-06-22 04:51:00,49.0,44.1,29.95,SW,217,1.0,3.0,83,0.00,CLR,CLR,0.00,WeatherDisplay:10.34,2013-06-22 10:51:00,
2013-06-22 04:56:00,48.9,44.3,29.95,WSW,240,3.0,3.0,84,0.00,CLR,CLR,0.00,WeatherDisplay:10.34,2013-06-22 10:56:00,
2013-06-22 05:01:00,48.8,44.2,29.95,WSW,240,0.0,1.0,84,0.00,OVC,OVC,0.00,WeatherDisplay:10.34,2013-06-22 11:01:00,
2013-06-22 05:07:00,48.8,44.2,29.95,WSW,240,0.0,0.0,84,0.00,OVC,OVC,0.00,WeatherDisplay:10.34,2013-06-22 11:07:00,
2013-06-22 05:12:00,48.7,44.1,29.95,WSW,240,2.0,2.0,84,0.00,OVC,OVC,0.00,WeatherDisplay:10.34,2013-06-22 11:12:00,
2013-06-22 05:17:00,48.6,44.0,29.95,WSW,240,0.0,0.0,84,0.00,OVC,OVC,0.00,WeatherDisplay:10.34,2013-06-22 11:17:00,
2013-06-22 05:22:00,48.5,43.9,29.95,WSW,240,0.0,1.0,84,0.00,OVC,OVC,0.00,WeatherDisplay:10.34,2013-06-22 11:22:00,
2013-06-22 05:27:00,48.4,43.8,29.95,WSW,240,2.0,2.0,84,0.00,OVC,OVC,0.00,WeatherDisplay:10.34,2013-06-22 11:27:00,
2013-06-22 05:32:00,48.3,44.0,29.94,WSW,240,0.0,0.0,85,0.00,OVC,OVC,0.00,WeatherDisplay:10.34,2013-06-22 11:32:00,
2013-06-22 05:37:00,48.2,43.9,29.94,WSW,240,0.0,1.0,85,0.00,FEW,FEW,0.00,WeatherDisplay:10.34,2013-06-22 11:37:00,
2013-06-22 05:42:00,48.2,43.9,29.94,WSW,240,1.0,2.0,85,0.00,BKN,BKN,0.00,WeatherDisplay:10.34,2013-06-22 11:42:00,
2013-06-22 05:47:00,48.1,43.8,29.94,West,263,4.0,5.0,85,0.00,BKN,BKN,0.00,WeatherDisplay:10.34,2013-06-22 11:47:00,
2013-06-22 05:52:00,48.3,44.3,29.95,West,281,6.0,9.0,86,0.00,BKN,BKN,0.00,WeatherDisplay:10.34,2013-06-22 11:52:00,
2013-06-22 05:57:00,48.4,44.7,29.95,West,260,3.0,3.0,87,0.00,BKN,BKN,0.00,WeatherDisplay:10.34,2013-06-22 11:57:00,
2013-06-22 06:02:00,48.5,44.8,29.95,West,260,3.0,3.0,87,0.00,OVC,OVC,0.00,WeatherDisplay:10.34,2013-06-22 12:02:00,
2013-06-22 06:07:00,48.6,44.9,29.95,WNW,300,3.0,7.0,87,0.00,OVC,OVC,0.00,WeatherDisplay:10.34,2013-06-22 12:07:00,
2013-06-22 06:12:00,48.7,45.0,29.95,SW,217,3.0,3.0,87,0.00,OVC,OVC,0.00,WeatherDisplay:10.34,2013-06-22 12:12:00,
2013-06-22 06:17:00,48.8,45.1,29.95,SW,215,1.0,2.0,87,0.00,OVC,OVC,0.00,WeatherDisplay:10.34,2013-06-22 12:17:00,
2013-06-22 06:22:00,48.9,44.9,29.95,SSW,205,2.0,2.0,86,0.00,OVC,OVC,0.00,WeatherDisplay:10.34,2013-06-22 12:22:00,
2013-06-22 06:27:00,48.7,44.7,29.95,SSW,205,2.0,2.0,86,0.00,OVC,OVC,0.00,WeatherDisplay:10.34,2013-06-22 12:27:00,
2013-06-22 06:32:00,48.7,44.7,29.95,SSW,205,0.0,0.0,86,0.00,OVC,OVC,0.00,WeatherDisplay:10.34,2013-06-22 12:32:00,
2013-06-22 06:37:00,48.7,44.7,29.95,SSW,205,0.0,0.0,86,0.00,SCT,SCT,0.00,WeatherDisplay:10.34,2013-06-22 12:37:00,
2013-06-22 06:42:00,48.7,44.7,29.95,SSW,205,0.0,0.0,86,0.00,OVC,OVC,0.00,WeatherDisplay:10.34,2013-06-22 12:42:00,
2013-06-22 06:47:00,48.9,45.2,29.95,SSW,205,0.0,0.0,87,0.00,FEW,FEW,0.00,WeatherDisplay:10.34,2013-06-22 12:47:00,
2013-06-22 06:52:00,49.2,45.5,29.95,SSW,205,0.0,1.0,87,0.00,CLR,CLR,0.00,WeatherDisplay:10.34,2013-06-22 12:52:00,
2013-06-22 06:57:00,49.6,45.9,29.95,SSW,205,0.0,0.0,87,0.00,CLR,CLR,0.00,WeatherDisplay:10.34,2013-06-22 12:57:00,
2013-06-22 07:02:00,50.1,46.7,29.95,SW,228,1.0,2.0,88,0.00,CLR,CLR,0.00,WeatherDisplay:10.34,2013-06-22 13:02:00,
2013-06-22 07:07:00,50.6,47.2,29.95,NW,305,1.0,2.0,88,0.00,CLR,CLR,0.00,WeatherDisplay:10.34,2013-06-22 13:07:00,
2013-06-22 07:12:00,51.3,47.9,29.95,NW,304,2.0,3.0,88,0.00,CLR,CLR,0.00,WeatherDisplay:10.34,2013-06-22 13:12:00,
2013-06-22 07:17:00,51.9,47.8,29.95,WNW,291,1.0,5.0,86,0.00,CLR,CLR,0.00,WeatherDisplay:10.34,2013-06-22 13:17:00,
2013-06-22 07:22:00,52.3,47.9,29.95,West,265,6.0,9.0,85,0.00,CLR,CLR,0.00,WeatherDisplay:10.34,2013-06-22 13:22:00,
2013-06-22 07:27:00,52.6,47.9,29.95,WNW,288,3.0,5.0,84,0.00,FEW,FEW,0.00,WeatherDisplay:10.34,2013-06-22 13:27:00,
2013-06-22 07:32:00,52.9,48.2,29.95,NW,315,2.0,3.0,84,0.00,CLR,CLR,0.00,WeatherDisplay:10.34,2013-06-22 13:32:00,
2013-06-22 07:37:00,53.1,48.1,29.95,NW,305,7.0,7.0,83,0.00,OVC,OVC,0.00,WeatherDisplay:10.34,2013-06-22 13:37:00,
2013-06-22 07:42:00,53.0,47.7,29.94,NW,311,9.0,10.0,82,0.00,SCT,SCT,0.00,WeatherDisplay:10.34,2013-06-22 13:42:00,
2013-06-22 07:47:00,52.9,47.6,29.94,West,259,5.0,5.0,82,0.00,BKN,BKN,0.00,WeatherDisplay:10.34,2013-06-22 13:47:00,
2013-06-22 07:52:00,52.8,47.5,29.94,WNW,290,2.0,2.0,82,0.00,OVC,OVC,0.00,WeatherDisplay:10.34,2013-06-22 13:52:00,
2013-06-22 07:57:00,52.6,47.3,29.94,West,271,6.0,8.0,82,0.00,OVC,OVC,0.00,WeatherDisplay:10.34,2013-06-22 13:57:00,
2013-06-22 08:02:00,52.5,47.2,29.94,WNW,290,1.0,1.0,82,0.00,SCT,SCT,0.00,WeatherDisplay:10.34,2013-06-22 14:02:00,
2013-06-22 08:07:00,52.9,48.2,29.94,WNW,299,2.0,5.0,84,0.00,CLR,CLR,0.00,WeatherDisplay:10.34,2013-06-22 14:07:00,
2013-06-22 08:12:00,53.5,48.5,29.94,NW,314,4.0,7.0,83,0.00,CLR,CLR,0.00,WeatherDisplay:10.34,2013-06-22 14:12:00,
2013-06-22 08:17:00,54.2,48.5,29.94,WNW,288,1.0,7.0,81,0.00,CLR,CLR,0.00,WeatherDisplay:10.34,2013-06-22 14:17:00,
2013-06-22 08:22:00,55.3,49.6,29.94,NNW,335,9.0,10.0,81,0.00,CLR,CLR,0.00,WeatherDisplay:10.34,2013-06-22 14:22:00,
2013-06-22 08:27:00,56.1,49.7,29.94,North,5,15.0,15.0,79,0.00,CLR,CLR,0.00,WeatherDisplay:10.34,2013-06-22 14:27:00,
2013-06-22 08:32:00,56.5,49.7,29.94,NW,310,3.0,5.0,78,0.00,CLR,CLR,0.00,WeatherDisplay:10.34,2013-06-22 14:32:00,
2013-06-22 08:37:00,57.1,49.6,29.94,North,355,11.0,12.0,76,0.00,FEW,FEW,0.00,WeatherDisplay:10.34,2013-06-22 14:37:00,
2013-06-22 08:42:00,57.4,49.9,29.93,NNW,348,10.0,12.0,76,0.00,FEW,FEW,0.00,WeatherDisplay:10.34,2013-06-22 14:42:00,
2013-06-22 08:47:00,58.0,50.1,29.93,NW,321,2.0,7.0,75,0.00,CLR,CLR,0.00,WeatherDisplay:10.34,2013-06-22 14:47:00,
2013-06-22 08:52:00,59.0,50.0,29.93,NW,322,4.0,7.0,72,0.00,BKN,BKN,0.00,WeatherDisplay:10.34,2013-06-22 14:52:00,
2013-06-22 08:57:00,58.7,49.3,29.93,NNW,331,5.0,7.0,71,0.00,OVC,OVC,0.00,WeatherDisplay:10.34,2013-06-22 14:57:00,
2013-06-22 09:02:00,58.0,49.0,29.94,WNW,299,6.0,7.0,72,0.00,OVC,OVC,0.00,WeatherDisplay:10.34,2013-06-22 15:02:00,
2013-06-22 09:07:00,57.6,48.6,29.94,WNW,283,4.0,4.0,72,0.00,BKN,BKN,0.00,WeatherDisplay:10.34,2013-06-22 15:07:00,
2013-06-22 09:12:00,57.5,48.9,29.93,NW,304,7.0,9.0,73,0.00,BKN,BKN,0.00,WeatherDisplay:10.34,2013-06-22 15:12:00,
2013-06-22 09:17:00,57.8,49.2,29.93,North,5,5.0,8.0,73,0.00,FEW,FEW,0.00,WeatherDisplay:10.34,2013-06-22 15:17:00,
2013-06-22 09:22:00,58.4,49.8,29.93,NNW,329,9.0,10.0,73,0.00,CLR,CLR,0.00,WeatherDisplay:10.34,2013-06-22 15:22:00,
2013-06-22 09:27:00,59.0,50.0,29.93,WNW,290,7.0,8.0,72,0.00,CLR,CLR,0.00,WeatherDisplay:10.34,2013-06-22 15:27:00,
2013-06-22 09:32:00,59.8,50.8,29.93,WNW,297,9.0,9.0,72,0.00,CLR,CLR,0.00,WeatherDisplay:10.34,2013-06-22 15:32:00,
2013-06-22 09:37:00,60.2,50.0,29.93,North,360,6.0,8.0,69,0.00,CLR,CLR,0.00,WeatherDisplay:10.34,2013-06-22 15:37:00,
2013-06-22 09:42:00,60.8,50.2,29.93,NNW,341,10.0,10.0,68,0.00,CLR,CLR,0.00,WeatherDisplay:10.34,2013-06-22 15:42:00,
2013-06-22 09:47:00,61.3,50.2,29.93,NNW,341,7.0,13.0,67,0.00,CLR,CLR,0.00,WeatherDisplay:10.34,2013-06-22 15:47:00,
2013-06-22 09:52:00,61.8,50.3,29.92,WNW,284,9.0,9.0,66,0.00,CLR,CLR,0.00,WeatherDisplay:10.34,2013-06-22 15:52:00,
2013-06-22 09:57:00,62.3,50.4,29.92,NW,315,4.0,5.0,65,0.00,CLR,CLR,0.00,WeatherDisplay:10.34,2013-06-22 15:57:00,
2013-06-22 10:02:00,62.7,50.3,29.92,NNW,327,4.0,5.0,64,0.00,CLR,CLR,0.00,WeatherDisplay:10.34,2013-06-22 16:02:00,
2013-06-22 10:07:00,63.3,50.5,29.92,NNW,333,8.0,8.0,63,0.00,CLR,CLR,0.00,WeatherDisplay:10.34,2013-06-22 16:07:00,
2013-06-22 10:12:00,63.6,49.9,29.92,NW,319,9.0,9.0,61,0.00,CLR,CLR,0.00,WeatherDisplay:10.34,2013-06-22 16:12:00,
2013-06-22 10:17:00,63.8,50.5,29.92,North,350,7.0,8.0,62,0.00,CLR,CLR,0.00,WeatherDisplay:10.34,2013-06-22 16:17:00,
2013-06-22 10:22:00,64.3,50.1,29.92,WNW,299,5.0,5.0,60,0.00,CLR,CLR,0.00,WeatherDisplay:10.34,2013-06-22 16:22:00,
2013-06-22 10:27:00,64.7,50.5,29.92,West,269,4.0,8.0,60,0.00,FEW,FEW,0.00,WeatherDisplay:10.34,2013-06-22 16:27:00,
2013-06-22 10:32:00,65.1,49.5,29.91,West,268,7.0,8.0,57,0.00,CLR,CLR,0.00,WeatherDisplay:10.34,2013-06-22 16:32:00,
2013-06-22 10:37:00,65.5,49.9,29.91,WSW,241,2.0,2.0,57,0.00,CLR,CLR,0.00,WeatherDisplay:10.34,2013-06-22 16:37:00,
2013-06-22 10:42:00,66.2,51.0,29.91,WNW,297,1.0,5.0,58,0.00,CLR,CLR,0.00,WeatherDisplay:10.34,2013-06-22 16:42:00,
2013-06-22 10:47:00,66.6,50.4,29.91,West,269,5.0,7.0,56,0.00,CLR,CLR,0.00,WeatherDisplay:10.34,2013-06-22 16:47:00,
2013-06-22 10:52:00,66.8,50.1,29.90,WNW,296,6.0,10.0,55,0.00,CLR,CLR,0.00,WeatherDisplay:10.34,2013-06-22 16:52:00,
2013-06-22 10:57:00,67.4,51.2,29.90,NW,325,7.0,9.0,56,0.00,CLR,CLR,0.00,WeatherDisplay:10.34,2013-06-22 16:57:00,
2013-06-22 11:02:00,67.6,49.3,29.90,West,280,0.0,5.0,52,0.00,CLR,CLR,0.00,WeatherDisplay:10.34,2013-06-22 17:02:00,
2013-06-22 11:07:00,68.0,49.2,29.91,WNW,299,6.0,6.0,51,0.00,CLR,CLR,0.00,WeatherDisplay:10.34,2013-06-22 17:07:00,
2013-06-22 11:12:00,68.2,49.4,29.91,NE,42,6.0,7.0,51,0.00,CLR,CLR,0.00,WeatherDisplay:10.34,2013-06-22 17:12:00,
2013-06-22 11:17:00,68.5,51.2,29.91,NNW,330,2.0,2.0,54,0.00,CLR,CLR,0.00,WeatherDisplay:10.34,2013-06-22 17:17:00,
2013-06-22 11:22:00,68.6,49.7,29.90,NNW,337,2.0,3.0,51,0.00,CLR,CLR,0.00,WeatherDisplay:10.34,2013-06-22 17:22:00,
2013-06-22 11:27:00,68.9,49.5,29.90,NNE,30,10.0,12.0,50,0.00,CLR,CLR,0.00,WeatherDisplay:10.34,2013-06-22 17:27:00,
2013-06-22 11:32:00,69.5,50.0,29.90,West,274,2.0,2.0,50,0.00,CLR,CLR,0.00,WeatherDisplay:10.34,2013-06-22 17:32:00,
2013-06-22 11:37:00,69.7,48.6,29.90,North,360,4.0,4.0,47,0.00,CLR,CLR,0.00,WeatherDisplay:10.34,2013-06-22 17:37:00,
2013-06-22 11:42:00,70.2,48.4,29.89,WSW,237,1.0,2.0,46,0.00,CLR,CLR,0.00,WeatherDisplay:10.34,2013-06-22 17:42:00,
2013-06-22 11:47:00,70.4,49.2,29.89,WNW,282,3.0,3.0,47,0.00,CLR,CLR,0.00,WeatherDisplay:10.34,2013-06-22 17:47:00,
2013-06-22 11:52:00,70.4,48.6,29.89,SW,233,8.0,8.0,46,0.00,BKN,BKN,0.00,WeatherDisplay:10.34,2013-06-22 17:52:00,
2013-06-22 11:57:00,69.7,48.0,29.89,SSW,211,7.0,8.0,46,0.00,CLR,CLR,0.00,WeatherDisplay:10.34,2013-06-22 17:57:00,
2013-06-22 12:02:00,69.0,47.4,29.89,SSE,161,2.0,3.0,46,0.00,OVC,OVC,0.00,WeatherDisplay:10.34,2013-06-22 18:02:00,
2013-06-22 12:07:00,67.6,48.3,29.89,SW,222,5.0,8.0,50,0.00,OVC,OVC,0.00,WeatherDisplay:10.34,2013-06-22 18:07:00,
2013-06-22 12:12:00,67.8,47.9,29.88,West,261,5.0,7.0,49,0.00,OVC,OVC,0.00,WeatherDisplay:10.34,2013-06-22 18:12:00,
2013-06-22 12:17:00,67.6,47.8,29.88,West,275,1.0,1.0,49,0.00,OVC,OVC,0.00,WeatherDisplay:10.34,2013-06-22 18:17:00,
2013-06-22 12:22:00,67.6,48.3,29.88,NNW,344,0.0,1.0,50,0.00,OVC,OVC,0.00,WeatherDisplay:10.34,2013-06-22 18:22:00,
2013-06-22 12:27:00,67.4,48.1,29.88,NNW,336,4.0,7.0,50,0.00,OVC,OVC,0.00,WeatherDisplay:10.34,2013-06-22 18:27:00,
2013-06-22 12:32:00,67.7,48.9,29.88,North,5,4.0,5.0,51,0.00,FEW,FEW,0.00,WeatherDisplay:10.34,2013-06-22 18:32:00,
2013-06-22 12:37:00,68.0,48.1,29.88,ESE,121,0.0,1.0,49,0.00,BKN,BKN,0.00,WeatherDisplay:10.34,2013-06-22 18:37:00,
2013-06-22 12:42:00,68.1,47.7,29.87,SE,133,2.0,5.0,48,0.00,OVC,OVC,0.00,WeatherDisplay:10.34,2013-06-22 18:42:00,
2013-06-22 12:47:00,67.6,47.8,29.87,ESE,121,2.0,2.0,49,0.00,OVC,OVC,0.00,WeatherDisplay:10.34,2013-06-22 18:47:00,
2013-06-22 12:52:00,67.2,47.9,29.87,WNW,283,7.0,12.0,50,0.00,OVC,OVC,0.00,WeatherDisplay:10.34,2013-06-22 18:52:00,
2013-06-22 12:57:00,66.3,49.6,29.87,West,276,11.0,14.0,55,0.00,OVC,OVC,0.00,WeatherDisplay:10.34,2013-06-22 18:57:00,
2013-06-22 13:02:00,64.9,50.7,29.87,West,281,9.0,10.0,60,0.02,RA,RA,0.03,WeatherDisplay:10.34,2013-06-22 19:02:00,
2013-06-22 13:07:00,64.2,52.2,29.86,WSW,251,8.0,15.0,65,0.03,RA,RA,0.03,WeatherDisplay:10.34,2013-06-22 19:07:00,
2013-06-22 13:12:00,63.7,52.1,29.86,NW,313,5.0,8.0,66,0.03,RA,RA,0.03,WeatherDisplay:10.34,2013-06-22 19:12:00,
2013-06-22 13:17:00,63.4,49.7,29.86,West,265,11.0,15.0,61,0.03,OVC,OVC,0.03,WeatherDisplay:10.34,2013-06-22 19:17:00,
2013-06-22 13:22:00,63.1,50.3,29.87,WNW,302,13.0,16.0,63,0.03,OVC,OVC,0.03,WeatherDisplay:10.34,2013-06-22 19:22:00,
2013-06-22 13:27:00,62.5,49.3,29.87,WNW,290,3.0,9.0,62,0.03,OVC,OVC,0.03,WeatherDisplay:10.34,2013-06-22 19:27:00,
2013-06-22 13:32:00,62.2,49.0,29.87,NNW,331,12.0,16.0,62,0.03,OVC,OVC,0.03,WeatherDisplay:10.34,2013-06-22 19:32:00,
2013-06-22 13:37:00,61.8,49.5,29.87,WNW,303,3.0,3.0,64,0.03,OVC,OVC,0.03,WeatherDisplay:10.34,2013-06-22 19:37:00,
2013-06-22 13:42:00,61.4,49.1,29.87,NNW,333,5.0,5.0,64,0.03,OVC,OVC,0.03,WeatherDisplay:10.34,2013-06-22 19:42:00,
2013-06-22 13:47:00,61.2,49.7,29.87,WNW,286,1.0,2.0,66,0.03,OVC,OVC,0.03,WeatherDisplay:10.34,2013-06-22 19:47:00,
2013-06-22 13:52:00,61.0,49.1,29.87,NW,309,4.0,7.0,65,0.03,OVC,OVC,0.03,WeatherDisplay:10.34,2013-06-22 19:52:00,
2013-06-22 13:57:00,60.9,49.1,29.87,WNW,301,3.0,3.0,65,0.03,OVC,OVC,0.03,WeatherDisplay:10.34,2013-06-22 19:57:00,
2013-06-22 14:02:00,60.7,48.0,29.87,West,281,6.0,9.0,63,0.01,OVC,OVC,0.03,WeatherDisplay:10.34,2013-06-22 20:02:00,
2013-06-22 14:07:00,60.6,47.5,29.87,West,261,11.0,11.0,62,0.00,OVC,OVC,0.03,WeatherDisplay:10.34,2013-06-22 20:07:00,
2013-06-22 14:12:00,60.7,47.2,29.87,WNW,303,11.0,12.0,61,0.00,OVC,OVC,0.03,WeatherDisplay:10.34,2013-06-22 20:12:00,
2013-06-22 14:17:00,60.8,46.8,29.87,NW,307,9.0,14.0,60,0.00,OVC,OVC,0.03,WeatherDisplay:10.34,2013-06-22 20:17:00,
2013-06-22 14:22:00,61.1,47.1,29.87,WNW,291,6.0,7.0,60,0.00,OVC,OVC,0.03,WeatherDisplay:10.34,2013-06-22 20:22:00,
2013-06-22 14:27:00,61.4,46.0,29.87,WNW,296,11.0,16.0,57,0.00,OVC,OVC,0.03,WeatherDisplay:10.34,2013-06-22 20:27:00,
2013-06-22 14:32:00,61.4,46.9,29.86,NNW,346,11.0,20.0,59,0.00,OVC,OVC,0.03,WeatherDisplay:10.34,2013-06-22 20:32:00,
2013-06-22 14:37:00,61.3,46.8,29.86,West,268,9.0,16.0,59,0.00,OVC,OVC,0.03,WeatherDisplay:10.34,2013-06-22 20:37:00,
2013-06-22 14:42:00,61.2,46.8,29.87,West,270,16.0,20.0,59,0.00,OVC,OVC,0.03,WeatherDisplay:10.34,2013-06-22 20:42:00,
2013-06-22 14:47:00,61.4,46.0,29.86,WNW,295,8.0,15.0,57,0.00,OVC,OVC,0.03,WeatherDisplay:10.34,2013-06-22 20:47:00,
2013-06-22 14:52:00,61.7,45.4,29.87,North,5,10.0,15.0,55,0.00,OVC,OVC,0.03,WeatherDisplay:10.34,2013-06-22 20:52:00,
2013-06-22 14:57:00,62.3,45.9,29.88,WNW,302,6.0,12.0,55,0.00,OVC,OVC,0.03,WeatherDisplay:10.34,2013-06-22 20:57:00,
2013-06-22 15:02:00,62.8,47.3,29.88,NW,313,11.0,11.0,57,0.00,OVC,OVC,0.03,WeatherDisplay:10.34,2013-06-22 21:02:00,
2013-06-22 15:07:00,63.1,47.6,29.86,NW,323,11.0,13.0,57,0.00,OVC,OVC,0.03,WeatherDisplay:10.34,2013-06-22 21:07:00,
2013-06-22 15:12:00,63.4,47.9,29.86,WNW,302,13.0,15.0,57,0.00,BKN,BKN,0.03,WeatherDisplay:10.34,2013-06-22 21:12:00,
2013-06-22 15:17:00,65.2,49.6,29.87,NW,304,12.0,15.0,57,0.00,CLR,CLR,0.03,WeatherDisplay:10.34,2013-06-22 21:17:00,
2013-06-22 15:22:00,66.7,49.0,29.87,WNW,284,16.0,20.0,53,0.00,CLR,CLR,0.03,WeatherDisplay:10.34,2013-06-22 21:22:00,
2013-06-22 15:27:00,66.7,50.5,29.87,NNW,342,14.0,20.0,56,0.00,CLR,CLR,0.03,WeatherDisplay:10.34,2013-06-22 21:27:00,
2013-06-22 15:32:00,66.0,50.3,29.86,NNW,346,15.0,20.0,57,0.00,CLR,CLR,0.03,WeatherDisplay:10.34,2013-06-22 21:32:00,
2013-06-22 15:37:00,65.3,50.1,29.86,WNW,292,19.0,21.0,58,0.00,CLR,CLR,0.03,WeatherDisplay:10.34,2013-06-22 21:37:00,
2013-06-22 15:42:00,65.1,49.5,29.86,NNW,346,24.0,28.0,57,0.00,CLR,CLR,0.03,WeatherDisplay:10.34,2013-06-22 21:42:00,
2013-06-22 15:47:00,65.1,49.5,29.85,NNW,330,15.0,17.0,57,0.00,CLR,CLR,0.03,WeatherDisplay:10.34,2013-06-22 21:47:00,
2013-06-22 15:52:00,65.1,49.0,29.84,NNW,332,17.0,17.0,56,0.00,CLR,CLR,0.03,WeatherDisplay:10.34,2013-06-22 21:52:00,
2013-06-22 15:57:00,65.5,46.9,29.85,NNW,342,12.0,12.0,51,0.00,OVC,OVC,0.03,WeatherDisplay:10.34,2013-06-22 21:57:00,
2013-06-22 16:02:00,65.2,47.1,29.85,NW,315,13.0,13.0,52,0.00,OVC,OVC,0.03,WeatherDisplay:10.34,2013-06-22 22:02:00,
2013-06-22 16:07:00,64.7,46.1,29.84,NNW,329,12.0,13.0,51,0.00,OVC,OVC,0.03,WeatherDisplay:10.34,2013-06-22 22:07:00,
2013-06-22 16:12:00,64.2,46.7,29.84,NNW,345,16.0,16.0,53,0.00,OVC,OVC,0.03,WeatherDisplay:10.34,2013-06-22 22:12:00,
2013-06-22 16:17:00,63.9,46.4,29.84,North,355,14.0,14.0,53,0.00,OVC,OVC,0.03,WeatherDisplay:10.34,2013-06-22 22:17:00,
2013-06-22 16:22:00,63.6,46.1,29.85,North,350,10.0,12.0,53,0.00,OVC,OVC,0.03,WeatherDisplay:10.34,2013-06-22 22:22:00,
2013-06-22 16:27:00,63.3,45.4,29.85,NNW,343,12.0,12.0,52,0.00,OVC,OVC,0.03,WeatherDisplay:10.34,2013-06-22 22:27:00,
2013-06-22 16:32:00,63.1,45.7,29.85,NNW,338,8.0,10.0,53,0.00,OVC,OVC,0.03,WeatherDisplay:10.34,2013-06-22 22:32:00,
2013-06-22 16:37:00,63.2,45.8,29.85,North,355,7.0,9.0,53,0.00,OVC,OVC,0.03,WeatherDisplay:10.34,2013-06-22 22:37:00,
2013-06-22 16:42:00,63.1,45.7,29.85,NNW,342,9.0,9.0,53,0.00,OVC,OVC,0.03,WeatherDisplay:10.34,2013-06-22 22:42:00,
2013-06-22 16:47:00,62.9,45.5,29.85,NNW,334,9.0,10.0,53,0.00,OVC,OVC,0.03,WeatherDisplay:10.34,2013-06-22 22:47:00,
2013-06-22 16:52:00,62.5,46.1,29.85,NW,321,15.0,15.0,55,0.00,OVC,OVC,0.03,WeatherDisplay:10.34,2013-06-22 22:52:00,
2013-06-22 16:57:00,62.2,45.8,29.86,WNW,302,7.0,7.0,55,0.00,OVC,OVC,0.03,WeatherDisplay:10.34,2013-06-22 22:57:00,
2013-06-22 17:02:00,62.4,45.5,29.86,NW,306,9.0,9.0,54,0.00,BKN,BKN,0.03,WeatherDisplay:10.34,2013-06-22 23:02:00,
2013-06-22 17:07:00,63.2,46.3,29.86,NW,311,10.0,10.0,54,0.00,SCT,SCT,0.03,WeatherDisplay:10.34,2013-06-22 23:07:00,
2013-06-22 17:12:00,64.4,46.4,29.86,North,355,12.0,12.0,52,0.00,FEW,FEW,0.03,WeatherDisplay:10.34,2013-06-22 23:12:00,
2013-06-22 17:17:00,64.5,44.9,29.87,NW,306,9.0,13.0,49,0.00,OVC,OVC,0.03,WeatherDisplay:10.34,2013-06-22 23:17:00,
2013-06-22 17:22:00,64.1,45.6,29.87,West,263,14.0,16.0,51,0.00,FEW,FEW,0.03,WeatherDisplay:10.34,2013-06-22 23:22:00,
2013-06-22 17:27:00,63.9,46.4,29.87,NNE,18,11.0,12.0,53,0.00,OVC,OVC,0.03,WeatherDisplay:10.34,2013-06-22 23:27:00,
2013-06-22 17:32:00,63.3,46.9,29.86,NNE,17,11.0,13.0,55,0.00,OVC,OVC,0.03,WeatherDisplay:10.34,2013-06-22 23:32:00,
2013-06-22 17:37:00,63.0,47.1,29.86,NE,42,6.0,8.0,56,0.00,OVC,OVC,0.03,WeatherDisplay:10.34,2013-06-22 23:37:00,
2013-06-22 17:42:00,62.9,46.5,29.87,NNE,33,8.0,9.0,55,0.00,BKN,BKN,0.03,WeatherDisplay:10.34,2013-06-22 23:42:00,
2013-06-22 17:47:00,62.9,47.0,29.87,NNE,24,7.0,8.0,56,0.00,SCT,SCT,0.03,WeatherDisplay:10.34,2013-06-22 23:47:00,
2013-06-22 17:52:00,63.0,47.5,29.87,NNE,17,8.0,8.0,57,0.00,SCT,SCT,0.03,WeatherDisplay:10.34,2013-06-22 23:52:00,
2013-06-22 17:57:00,62.7,47.2,29.87,NNE,29,5.0,8.0,57,0.00,OVC,OVC,0.03,WeatherDisplay:10.34,2013-06-22 23:57:00,
2013-06-22 18:02:00,62.5,46.6,29.87,North,9,7.0,10.0,56,0.00,OVC,OVC,0.03,WeatherDisplay:10.34,2013-06-23 00:02:00,
2013-06-22 18:07:00,62.5,47.1,29.87,NNE,22,6.0,7.0,57,0.00,SCT,SCT,0.03,WeatherDisplay:10.34,2013-06-23 00:07:00,
2013-06-22 18:12:00,62.8,47.3,29.87,NNE,18,5.0,8.0,57,0.00,BKN,BKN,0.03,WeatherDisplay:10.34,2013-06-23 00:12:00,
2013-06-22 18:17:00,63.1,48.1,29.87,NNE,22,3.0,3.0,58,0.00,BKN,BKN,0.03,WeatherDisplay:10.34,2013-06-23 00:17:00,
2013-06-22 18:22:00,63.6,47.6,29.87,North,10,5.0,5.0,56,0.00,CLR,CLR,0.03,WeatherDisplay:10.34,2013-06-23 00:22:00,
2013-06-22 18:27:00,63.6,47.1,29.88,North,355,6.0,6.0,55,0.00,CLR,CLR,0.03,WeatherDisplay:10.34,2013-06-23 00:27:00,
2013-06-22 18:32:00,63.3,47.3,29.88,NNW,336,6.0,7.0,56,0.00,OVC,OVC,0.03,WeatherDisplay:10.34,2013-06-23 00:32:00,
2013-06-22 18:37:00,62.9,47.0,29.88,NNW,346,6.0,8.0,56,0.00,OVC,OVC,0.03,WeatherDisplay:10.34,2013-06-23 00:37:00,
2013-06-22 18:42:00,62.7,48.2,29.88,NW,311,1.0,5.0,59,0.00,CLR,CLR,0.03,WeatherDisplay:10.34,2013-06-23 00:42:00,
2013-06-22 18:47:00,62.6,45.7,29.89,West,273,11.0,14.0,54,0.00,FEW,FEW,0.03,WeatherDisplay:10.34,2013-06-23 00:47:00,
2013-06-22 18:52:00,62.6,44.7,29.90,NW,326,13.0,14.0,52,0.00,CLR,CLR,0.03,WeatherDisplay:10.34,2013-06-23 00:52:00,
2013-06-22 18:57:00,62.5,44.6,29.90,West,273,10.0,13.0,52,0.00,CLR,CLR,0.03,WeatherDisplay:10.34,2013-06-23 00:57:00,
2013-06-22 19:02:00,62.1,44.3,29.90,NNW,333,16.0,22.0,52,0.00,CLR,CLR,0.03,WeatherDisplay:10.34,2013-06-23 01:02:00,
2013-06-22 19:07:00,60.5,44.7,29.91,NNW,344,15.0,16.0,56,0.00,CLR,CLR,0.03,WeatherDisplay:10.34,2013-06-23 01:07:00,
2013-06-22 19:12:00,59.9,45.1,29.91,NNW,342,12.0,20.0,58,0.00,CLR,CLR,0.03,WeatherDisplay:10.34,2013-06-23 01:12:00,
2013-06-22 19:17:00,59.1,44.3,29.91,NW,316,21.0,32.0,58,0.00,OVC,OVC,0.03,WeatherDisplay:10.34,2013-06-23 01:17:00,
2013-06-22 19:22:00,58.1,43.8,29.91,WSW,254,19.0,28.0,59,0.00,OVC,OVC,0.03,WeatherDisplay:10.34,2013-06-23 01:22:00,
2013-06-22 19:27:00,57.2,43.9,29.91,NW,308,17.0,23.0,61,0.00,FEW,FEW,0.03,WeatherDisplay:10.34,2013-06-23 01:27:00,
2013-06-22 19:32:00,57.3,44.0,29.91,NW,325,7.0,10.0,61,0.00,CLR,CLR,0.03,WeatherDisplay:10.34,2013-06-23 01:32:00,
2013-06-22 19:37:00,57.5,44.6,29.91,NW,324,13.0,13.0,62,0.00,CLR,CLR,0.03,WeatherDisplay:10.34,2013-06-23 01:37:00,
2013-06-22 19:42:00,57.5,44.1,29.91,NNW,348,11.0,11.0,61,0.00,CLR,CLR,0.03,WeatherDisplay:10.34,2013-06-23 01:42:00,
2013-06-22 19:47:00,57.1,44.2,29.92,NNW,330,11.0,13.0,62,0.00,OVC,OVC,0.03,WeatherDisplay:10.34,2013-06-23 01:47:00,
2013-06-22 19:52:00,56.7,44.2,29.92,NW,312,14.0,16.0,63,0.00,CLR,CLR,0.03,WeatherDisplay:10.34,2013-06-23 01:52:00,
2013-06-22 19:57:00,56.2,43.3,29.93,NNE,17,14.0,15.0,62,0.00,BKN,BKN,0.03,WeatherDisplay:10.34,2013-06-23 01:57:00,
2013-06-22 20:02:00,55.7,42.5,29.92,North,360,13.0,16.0,61,0.00,SCT,SCT,0.03,WeatherDisplay:10.34,2013-06-23 02:02:00,
2013-06-22 20:07:00,55.3,42.1,29.92,NW,321,7.0,12.0,61,0.00,BKN,BKN,0.03,WeatherDisplay:10.34,2013-06-23 02:07:00,
2013-06-22 20:12:00,55.1,42.3,29.93,NW,325,6.0,6.0,62,0.00,BKN,BKN,0.03,WeatherDisplay:10.34,2013-06-23 02:12:00,
2013-06-22 20:17:00,55.0,41.8,29.93,NNW,341,8.0,10.0,61,0.00,BKN,BKN,0.03,WeatherDisplay:10.34,2013-06-23 02:17:00,
2013-06-22 20:22:00,55.1,41.5,29.94,North,9,11.0,12.0,60,0.00,BKN,BKN,0.03,WeatherDisplay:10.34,2013-06-23 02:22:00,
2013-06-22 20:27:00,55.4,41.3,29.94,North,355,10.0,10.0,59,0.00,SCT,SCT,0.03,WeatherDisplay:10.34,2013-06-23 02:27:00,
2013-06-22 20:32:00,55.6,41.9,29.95,North,355,8.0,8.0,60,0.00,BKN,BKN,0.03,WeatherDisplay:10.34,2013-06-23 02:32:00,
2013-06-22 20:37:00,55.7,42.0,29.95,WNW,297,1.0,2.0,60,0.00,BKN,BKN,0.03,WeatherDisplay:10.34,2013-06-23 02:37:00,
2013-06-22 20:42:00,55.7,42.0,29.97,West,261,3.0,5.0,60,0.00,SCT,SCT,0.03,WeatherDisplay:10.34,2013-06-23 02:42:00,
2013-06-22 20:47:00,55.7,41.1,29.97,WSW,253,11.0,16.0,58,0.00,CLR,CLR,0.03,WeatherDisplay:10.34,2013-06-23 02:47:00,
2013-06-22 20:52:00,55.8,40.8,29.96,WSW,238,7.0,8.0,57,0.00,CLR,CLR,0.03,WeatherDisplay:10.34,2013-06-23 02:52:00,
2013-06-22 20:57:00,56.0,40.5,29.96,SSE,161,1.0,3.0,56,0.00,CLR,CLR,0.03,WeatherDisplay:10.34,2013-06-23 02:57:00,
2013-06-22 21:02:00,56.1,40.6,29.96,NE,46,4.0,4.0,56,0.00,OVC,OVC,0.03,WeatherDisplay:10.34,2013-06-23 03:02:00,
2013-06-22 21:07:00,56.2,40.7,29.95,NE,34,4.0,5.0,56,0.00,OVC,OVC,0.03,WeatherDisplay:10.34,2013-06-23 03:07:00,
2013-06-22 21:12:00,56.2,40.2,29.96,NNW,330,0.0,1.0,55,0.00,OVC,OVC,0.03,WeatherDisplay:10.34,2013-06-23 03:12:00,
2013-06-22 21:17:00,56.1,40.1,29.96,NW,315,3.0,5.0,55,0.00,OVC,OVC,0.03,WeatherDisplay:10.34,2013-06-23 03:17:00,
2013-06-22 21:22:00,55.9,40.4,29.96,North,350,2.0,5.0,56,0.00,OVC,OVC,0.03,WeatherDisplay:10.34,2013-06-23 03:22:00,
2013-06-22 21:27:00,55.6,40.6,29.95,North,350,7.0,8.0,57,0.00,OVC,OVC,0.03,WeatherDisplay:10.34,2013-06-23 03:27:00,
2013-06-22 21:32:00,55.4,40.4,29.95,WNW,299,3.0,3.0,57,0.00,OVC,OVC,0.03,WeatherDisplay:10.34,2013-06-23 03:32:00,
2013-06-22 21:37:00,55.1,40.6,29.96,West,261,6.0,8.0,58,0.00,OVC,OVC,0.03,WeatherDisplay:10.34,2013-06-23 03:37:00,
2013-06-22 21:42:00,55.1,40.1,29.96,WNW,296,1.0,2.0,57,0.00,OVC,OVC,0.03,WeatherDisplay:10.34,2013-06-23 03:42:00,
2013-06-22 21:47:00,55.0,40.0,29.96,WSW,249,5.0,5.0,57,0.00,OVC,OVC,0.03,WeatherDisplay:10.34,2013-06-23 03:47:00,
2013-06-22 21:52:00,54.9,40.4,29.97,West,281,4.0,4.0,58,0.00,OVC,OVC,0.03,WeatherDisplay:10.34,2013-06-23 03:52:00,
2013-06-22 21:57:00,54.7,40.2,29.97,West,281,1.0,1.0,58,0.00,OVC,OVC,0.03,WeatherDisplay:10.34,2013-06-23 03:57:00,
2013-06-22 22:01:00,54.6,40.6,29.97,West,281,0.0,1.0,59,0.00,CLR,CLR,0.03,WeatherDisplay:10.34,2013-06-23 04:01:00,
2013-06-22 22:02:00,54.6,40.6,29.97,West,281,2.0,2.0,59,0.00,CLR,CLR,0.03,WeatherDisplay:10.34,2013-06-23 04:02:00,
2013-06-22 22:03:00,54.5,40.5,29.97,WNW,285,4.0,4.0,59,0.00,CLR,CLR,0.03,WeatherDisplay:10.34,2013-06-23 04:03:00,
2013-06-22 22:08:00,54.1,40.1,29.97,WNW,284,1.0,1.0,59,0.00,CLR,CLR,0.03,WeatherDisplay:10.34,2013-06-23 04:08:00,
2013-06-22 22:12:00,53.9,39.9,29.98,WNW,289,3.0,3.0,59,0.00,CLR,CLR,0.03,WeatherDisplay:10.34,2013-06-23 04:12:00,
2013-06-22 22:17:00,53.6,40.0,29.97,WNW,293,0.0,0.0,60,0.00,CLR,CLR,0.03,WeatherDisplay:10.34,2013-06-23 04:17:00,
2013-06-22 22:22:00,53.5,39.9,29.97,WNW,287,4.0,4.0,60,0.00,CLR,CLR,0.03,WeatherDisplay:10.34,2013-06-23 04:22:00,
2013-06-22 22:27:00,53.3,39.8,29.98,West,277,2.0,2.0,60,0.00,CLR,CLR,0.03,WeatherDisplay:10.34,2013-06-23 04:27:00,
2013-06-22 22:32:00,53.2,39.7,29.98,West,277,0.0,0.0,60,0.00,CLR,CLR,0.03,WeatherDisplay:10.34,2013-06-23 04:32:00,
2013-06-22 22:37:00,52.8,40.5,29.98,West,277,3.0,3.0,63,0.00,CLR,CLR,0.03,WeatherDisplay:10.34,2013-06-23 04:37:00,
2013-06-22 22:42:00,51.5,40.1,29.98,SSE,157,6.0,6.0,65,0.00,CLR,CLR,0.03,WeatherDisplay:10.34,2013-06-23 04:42:00,
2013-06-22 22:47:00,50.5,40.3,29.98,SSE,157,3.0,3.0,68,0.00,CLR,CLR,0.03,WeatherDisplay:10.34,2013-06-23 04:47:00,
2013-06-22 22:52:00,50.2,40.0,29.98,SSE,157,2.0,2.0,68,0.00,CLR,CLR,0.03,WeatherDisplay:10.34,2013-06-23 04:52:00,
2013-06-22 22:57:00,50.1,39.9,29.98,SSW,194,3.0,3.0,68,0.00,CLR,CLR,0.03,WeatherDisplay:10.34,2013-06-23 04:57:00,
2013-06-22 23:02:00,50.0,39.8,29.98,SSW,194,0.0,1.0,68,0.00,CLR,CLR,0.03,WeatherDisplay:10.34,2013-06-23 05:02:00,
2013-06-22 23:07:00,49.8,39.7,29.98,SSW,194,0.0,0.0,68,0.00,CLR,CLR,0.03,WeatherDisplay:10.34,2013-06-23 05:07:00,
2013-06-22 23:12:00,49.7,39.6,29.97,SSW,194,1.0,1.0,68,0.00,CLR,CLR,0.03,WeatherDisplay:10.34,2013-06-23 05:12:00,
2013-06-22 23:17:00,49.5,40.1,29.97,SSW,192,4.0,4.0,70,0.00,CLR,CLR,0.03,WeatherDisplay:10.34,2013-06-23 05:17:00,
2013-06-22 23:22:00,49.4,40.4,29.97,SSW,192,0.0,0.0,71,0.00,CLR,CLR,0.03,WeatherDisplay:10.34,2013-06-23 05:22:00,
2013-06-22 23:27:00,49.2,40.6,29.97,SSW,192,1.0,1.0,72,0.00,CLR,CLR,0.03,WeatherDisplay:10.34,2013-06-23 05:27:00,
2013-06-22 23:32:00,49.2,40.6,29.98,SW,221,4.0,5.0,72,0.00,CLR,CLR,0.03,WeatherDisplay:10.34,2013-06-23 05:32:00,
2013-06-22 23:37:00,49.0,40.4,29.98,SSW,207,4.0,4.0,72,0.00,CLR,CLR,0.03,WeatherDisplay:10.34,2013-06-23 05:37:00,
2013-06-22 23:42:00,48.8,40.2,29.97,SSW,209,3.0,3.0,72,0.00,CLR,CLR,0.03,WeatherDisplay:10.34,2013-06-23 05:42:00,
2013-06-22 23:47:00,48.6,40.0,29.97,SSW,209,4.0,4.0,72,0.00,CLR,CLR,0.03,WeatherDisplay:10.34,2013-06-23 05:47:00,
2013-06-22 23:52:00,48.4,39.8,29.98,SSW,209,0.0,0.0,72,0.00,CLR,CLR,0.03,WeatherDisplay:10.34,2013-06-23 05:52:00,
2013-06-22 23:57:00,48.2,39.6,29.97,SSW,209,0.0,1.0,72,0.00,CLR,CLR,0.03,WeatherDisplay:10.34,2013-06-23 05:57:00,